Location: Worbis
(51.4200°N, 10.3633°E)
Time: 23:35:24
(UTC+00:00)

Daily predictions for brighter satellites

Satellite Brightness Start Highest point End
(mag) Time Altitude Azimuth Time Altitude Azimuth Time Altitude Azimuth
Cosmos 2082 3.9 19:52:38 10° NNW 19:58:18 77° WSW 20:03:54 10° SSE
Meteor 1-11 Rocket 4.3 19:53:10 10° NNW 19:59:05 65° W 20:04:58 10° S
Cosmos 482 Debris 3.9 19:58:47 10° W 20:01:19 55° SSW 20:05:07 10° ESE
Cosmos 1470 Rocket 4.2 19:57:12 10° NNW 20:01:27 56° W 20:05:40 10° S
Cosmos 2263 Rocket 2.4 19:55:53 10° NNW 20:01:28 65° NE 20:07:00 10° SE
Cosmos 1743 3.0 20:00:58 10° NNW 20:04:44 67° W 20:08:28 10° S
Ariane Rocket 3.3 20:02:06 10° S 20:07:10 72° WSW 20:12:17 10° NNW
IRAS Rocket 4.3 20:04:57 10° NNE 20:10:37 83° ESE 20:16:16 10° SSW
BREEZE-M DEB (TANK) 1.8 20:09:20 10° WSW 20:11:55 51° S 20:14:05 10° E
SPOT 5 3.3 20:07:07 10° SE 20:12:16 56° ENE 20:17:14 10° N
Terra 2.6 20:09:27 10° SE 20:13:52 40° ENE 20:18:20 10° N
Resurs 01 Rocket 2.7 20:11:47 10° S 20:15:59 44° W 20:20:14 10° NNW
Aureole 1 Rocket 2.3 20:14:54 10° SSW 20:18:00 76° WNW 20:21:00 10° NNE
Cosmos 1346 Rocket 4.4 20:15:08 10° SE 20:18:06 20° E 20:21:05 10° NE
Cosmos 1515 Rocket 3.9 20:14:26 10° SSW 20:18:47 70° WNW 20:23:12 10° N
Cosmos 2227 Rocket 3.9 20:14:17 10° NW 20:19:05 29° WSW 20:23:52 10° SSW
Cosmos 921 Rocket 3.5 20:16:02 10° NNW 20:20:31 62° WSW 20:24:57 10° S
Geosat FO 4.4 20:23:26 11° SSE 20:26:41 87° ENE 20:30:01 10° NNW
Cosmos 1869 Rocket 3.6 20:25:19 10° N 20:29:50 88° ENE 20:34:19 10° S
SL-24 R/B - RUBIN 2 3.6 20:26:05 10° NW 20:30:28 80° NE 20:34:40 12° SE
Cosmos 1980 Rocket 2.2 20:25:22 10° SSW 20:30:59 76° ESE 20:36:41 10° NNE
CARTOSAT-1 4.0 20:27:07 10° S 20:31:22 62° WSW 20:35:41 10° NNW
Cosmos 2228 Rocket 3.2 20:29:56 10° S 20:34:26 61° E 20:38:56 10° NNE
Cosmos 1464 Rocket 4.3 20:29:30 10° SSW 20:35:40 70° WNW 20:41:50 10° N
Cosmos 1378 3.5 20:34:31 10° SSE 20:37:58 45° E 20:41:29 10° NNE
ISS -3.1 20:35:48 10° W 20:38:59 41° SSW 20:41:27 15° SE
Cosmos 2344 3.5 20:31:52 10° SW 20:39:15 76° SE 20:47:07 10° NE
Cosmos 2322 Rocket 3.5 20:36:17 12° SE 20:39:52 21° E 20:43:58 10° NE
Cosmos 773 Rocket 4.4 20:35:03 10° NNW 20:40:13 61° WSW 20:45:18 10° S
Cosmos 1777 Rocket 4.1 20:35:09 10° S 20:40:14 56° ESE 20:45:23 10° NNE
Cosmos 2369 3.8 20:35:03 10° SSW 20:40:42 85° WNW 20:46:25 10° NNE
Spot 2 Rocket 3.5 20:35:47 10° SSE 20:40:49 85° WSW 20:45:55 10° NNW
Cosmos 1844 Rocket 3.8 20:35:44 10° NNW 20:40:54 36° NE 20:46:01 10° ESE
Cosmos 1354 Rocket 4.0 20:36:11 10° SSW 20:41:28 86° ESE 20:46:49 10° NNE
SPOT 3 Rocket 4.1 20:37:02 10° S 20:42:06 57° W 20:47:11 10° NNW
ATLAS 2AS CENTAUR R/B 3.0 20:36:23 10° SSW 20:44:02 63° SE 20:51:27 10° NE
H-2A R/B 4.3 20:41:10 10° N 20:44:36 26° WNW 20:48:01 10° WSW
Okean 1 3.5 20:41:45 10° SSW 20:45:44 77° W 20:49:47 10° N
Cosmos 1092 Rocket 4.0 20:39:50 10° N 20:46:05 86° E 20:52:05 11° S
Meteor 2-4 Rocket 4.0 20:40:42 10° S 20:46:17 53° E 20:51:45 10° NNE
Meteor 1-19 Rocket 4.2 20:42:29 10° SSW 20:47:55 88° WNW 20:53:22 10° NNE
NOSS 3-4 (A) 4.1 20:43:01 10° WSW 20:48:45 60° NW 20:55:08 10° NE
NOSS 3-4 (C) 4.1 20:43:03 10° WSW 20:48:50 60° NW 20:55:12 10° NE
SL-4 R/B 4.4 20:47:04 10° WSW 20:49:05 13° SW 20:51:05 10° SSW
RESURS DK-1 2.3 20:45:41 10° SSW 20:49:45 66° ESE 20:53:52 10° NE
Cosmos 1697 Rocket 3.8 20:44:33 10° SW 20:50:03 50° NW 20:55:34 10° NNE
USA 267 3.9 20:47:26 10° E 20:53:51 59° N 21:00:15 10° WNW
Cosmos 1634 Rocket 4.1 20:50:12 10° S 20:56:19 65° E 21:02:26 10° NNE
ATLAS CENTAUR R/B 3.1 20:52:10 10° NW 20:56:42 35° NNE 21:01:06 10° E
ARIANE 5 R/B 2.7 20:53:39 15° SSE 20:57:21 77° ENE 21:01:53 10° NNW
Cosmos 44 Rocket 3.4 20:53:11 10° NW 20:57:51 61° SW 21:01:28 16° SSE
Cosmos 1707 Rocket 3.7 20:54:13 13° S 20:58:08 58° E 21:02:28 10° NNE
Cosmos 2227 4.4 20:57:31 10° NNW 21:03:17 72° WSW 21:07:59 16° SSE
Cosmos 1733 4.1 21:00:41 10° N 21:04:13 35° ENE 21:06:32 18° SE
Cosmos 158 Rocket 4.3 21:00:01 10° NNW 21:05:05 63° WSW 21:09:24 15° S
ATLAS 3B R/B 2.9 20:59:40 10° NW 21:07:01 85° SW 21:13:24 16° SE
NOSS 2-1 (E) 3.5 21:08:10 18° S 21:09:56 31° SE 21:12:53 10° ENE
Cosmos 1975 3.2 21:06:12 10° NNW 21:10:13 61° W 21:13:33 14° S
Cosmos 2026 Rocket 4.1 21:05:10 10° NNW 21:11:19 74° W 21:17:01 13° S
USA 81 4.0 21:09:00 13° S 21:13:49 80° E 21:19:07 10° N
ERS-1 Rocket 3.6 21:12:32 12° S 21:17:06 51° W 21:22:02 10° NNW
Meteor 1-4 Rocket 2.8 21:14:15 10° N 21:17:40 52° ENE 21:19:36 23° SE
SL-16 R/B 2.4 21:13:28 11° S 21:18:48 52° ESE 21:24:18 10° NE
CZ-4C R/B 3.7 21:12:27 10° NW 21:18:50 46° NNE 21:26:30 10° ESE
Cosmos 1538 Rocket 4.2 21:15:14 10° NNW 21:20:28 66° WSW 21:24:18 18° S
CZ-2C R/B 4.0 21:17:46 10° NNE 21:22:33 74° WNW 21:27:18 10° SSW
Meteor 2-10 4.4 21:19:08 10° N 21:24:20 54° ENE 21:27:49 20° SE
Cosmos 1733 Rocket 3.2 21:20:04 10° NNW 21:24:32 74° W 21:27:44 19° S
GENESIS II 4.2 21:21:16 10° SSW 21:25:03 59° SE 21:28:57 10° NE
Meteor 2-8 Rocket 4.5 21:25:01 10° SSW 21:31:07 83° WNW 21:37:14 10° N
SAR-Lupe-4 3.5 21:27:35 10° NNE 21:31:12 69° ESE 21:33:22 22° S
ERS-2 4.5 21:31:18 10° E 21:31:47 10° E 21:32:15 10° E
Geosat 4.0 21:28:35 20° SSE 21:32:04 78° WSW 21:37:08 10° NNW
EP 1 4.5 21:29:19 10° SSW 21:32:30 59° SE 21:35:12 10° NE
SJ 16-02 2.7 21:29:31 10° SW 21:33:38 38° WNW 21:37:46 10° N
Cosmos 1908 Rocket 3.8 21:31:51 10° N 21:36:09 56° ENE 21:38:37 24° SSE
Cosmos 1356 3.6 21:35:10 29° SSE 21:36:29 48° E 21:39:42 10° NNE
Cosmos 923 Rocket 4.0 21:33:15 10° NNW 21:38:38 85° ENE 21:42:10 22° SSE
Cosmos 2278 4.3 21:33:54 10° SW 21:39:30 60° NW 21:45:09 10° NNE
Cosmos 1862 Rocket 3.6 21:37:31 17° SSW 21:40:54 85° W 21:45:26 10° N
Cosmos 1470 4.5 21:38:36 10° NNE 21:41:42 22° ENE 21:43:46 15° ESE
Cosmos 1726 2.7 21:39:55 10° N 21:43:28 44° ENE 21:45:09 26° SE
Cosmos 2360 Rocket 2.7 21:40:42 21° SSE 21:43:55 40° ESE 21:49:10 10° NE
Cosmos 2263 Rocket 3.7 21:40:28 10° NW 21:44:57 25° WSW 21:49:11 11° SSW
Cosmos 1937 Rocket 4.4 21:42:38 22° SE 21:45:03 32° ESE 21:49:41 10° NE
Cosmos 2266 Rocket 4.1 21:40:55 10° N 21:47:11 70° ENE 21:51:20 22° SSE
ALOS 2 3.8 21:44:37 17° ESE 21:47:21 32° ENE 21:51:16 10° N
Meteor 1-13 Rocket 4.3 21:44:29 21° S 21:48:17 65° E 21:53:47 10° NNE
NOSS 2-1 (C) 2.7 21:47:01 10° SW 21:50:15 90° NW 21:53:34 10° NE
Terra 3.2 21:47:57 12° SSW 21:51:43 31° W 21:55:58 10° NNW
SAR-Lupe-1 4.5 21:48:40 10° N 21:52:13 60° WNW 21:54:47 18° SSW
Cosmos 1441 Rocket 3.1 21:51:04 22° SSW 21:53:20 78° WNW 21:57:04 10° N
Cosmos 1346 Rocket 3.8 21:50:23 11° SW 21:54:06 44° WNW 21:57:59 10° N
Cosmos 2279 Rocket 4.2 21:53:30 14° SSW 21:58:55 73° WNW 22:05:10 10° N
Cosmos 2112 Rocket 4.0 21:53:51 10° NNW 21:59:14 84° ENE 22:02:27 25° SSE
USA 215 3.7 21:53:15 10° ENE 21:59:16 37° SE 22:03:42 17° SSW
Cosmos 1680 Rocket 3.5 21:54:58 10° NNW 22:00:18 85° WSW 22:03:26 25° SSE
Cosmos 2278 Rocket 3.9 21:55:47 10° NNW 22:00:37 27° NE 22:05:24 10° E
NOSS 2-1 (D) 2.9 21:57:32 10° SW 22:00:43 72° NW 22:04:03 10° NE
Cosmos 990 Rocket 3.9 21:57:54 18° SSW 22:01:51 79° ESE 22:07:07 10° NNE
MINOTAUR IV R/B 4.5 22:00:16 19° SSW 22:03:29 82° ESE 22:08:01 10° NNE
Cosmos 1842 4.1 22:03:47 27° SE 22:05:06 35° E 22:08:39 10° NNE
Meteor 1-12 Rocket 4.4 21:59:12 10° NNW 22:05:10 81° W 22:08:54 24° S
Cosmos 1818 3.5 22:03:24 10° NW 22:08:53 77° SW 22:12:08 25° SSE
Cosmos 1066 Rocket 4.3 22:05:06 18° SSW 22:09:32 79° WNW 22:15:13 10° N
ADEOS Rocket 3.7 22:05:31 17° SE 22:09:35 44° ENE 22:15:22 10° N
Spot 4 3.8 22:07:13 26° SSE 22:09:54 78° ENE 22:14:43 10° NNW
Iridium 4 Rocket 3.2 22:06:30 10° N 22:11:04 85° E 22:13:43 27° S
Cosmos 1898 Rocket 3.5 22:11:50 23° S 22:15:13 71° ESE 22:20:32 10° NNE
Cosmos 1980 Rocket 4.3 22:10:47 10° W 22:15:35 28° NW 22:20:28 10° NNE
Okean 1-7 3.0 22:17:25 28° S 22:19:44 89° W 22:24:08 10° N
Iridium 51 4.5 22:21:00 28° SSW 22:22:33 54° W 22:26:06 10° N
Cosmos 2322 Rocket 2.3 22:18:02 12° SW 22:23:18 77° WNW 22:28:57 10° NNE
Cosmos 1844 Rocket 3.1 22:19:36 10° NW 22:25:01 51° WSW 22:27:57 26° S
Okean 3 3.4 22:25:02 31° S 22:26:59 84° E 22:31:16 10° NNE
Cosmos 2322 4.4 22:25:29 26° SSE 22:27:57 38° ESE 22:33:11 10° NE
Cosmos 2333 Rocket 2.5 22:25:18 27° S 22:28:08 49° ESE 22:33:35 10° NE
H-2A R/B 3.5 22:26:41 10° NNE 22:30:46 60° ESE 22:32:21 34° SSE
Cosmos 1461 3.1 22:27:20 10° NW 22:31:27 70° NE 22:33:55 24° SE
BREEZE-M DEB (TANK) 4.1 22:30:26 10° WSW 22:31:52 18° SW 22:31:52 18° SW
USA 229 DEB 4.2 22:27:29 10° NW 22:34:40 66° NE 22:42:22 10° ESE
USA 229 4.2 22:27:35 10° NW 22:34:45 66° NE 22:42:27 10° ESE
ATLAS 2AS CENTAUR R/B 3.8 22:27:47 10° WSW 22:35:20 52° NNW 22:42:32 10° NE
ATLAS CENTAUR R/B 1.9 22:30:59 10° NW 22:35:48 59° SW 22:37:50 32° SSE
USA 267 3.2 22:30:08 10° ESE 22:36:43 86° SSW 22:43:19 10° WNW
Meteor 1-23 Rocket 4.3 22:34:01 24° S 22:37:39 90° W 22:43:32 10° NNE
Cosmos 1766 4.2 22:38:06 10° NNW 22:41:46 38° W 22:43:23 26° SW
NOSS 2-2 (E) 4.4 22:38:55 10° NW 22:43:38 70° NE 22:49:59 11° SE
Cosmos 2219 Rocket 2.4 22:44:47 28° S 22:47:28 53° ESE 22:52:54 10° NE
Cosmos 1844 4.4 22:43:13 10° NW 22:48:39 42° WSW 22:51:27 25° SSW
Cosmos 1703 Rocket 4.2 22:48:15 22° SW 22:50:51 49° WNW 22:55:10 10° N
Cosmos 2221 Rocket 4.4 22:51:06 27° SE 22:52:47 38° E 22:56:52 10° NNE
Cosmos 494 Rocket 4.4 22:48:24 10° NNW 22:53:28 55° ENE 22:56:50 20° SE
Cosmos 1048 Rocket 4.3 22:48:44 10° NNW 22:53:53 61° ENE 22:57:08 22° SE
Cosmos 372 Rocket 3.9 22:51:17 28° SSW 22:54:00 79° ESE 22:59:13 10° NNE
ATLAS 3B R/B 4.2 22:51:13 10° WNW 22:56:57 25° WSW 23:00:38 17° SSW
NOSS 3-1 (A) 4.0 22:54:06 10° NW 23:01:21 86° SW 23:08:58 14° SE
Cosmos 1707 2.7 23:00:36 40° S 23:01:53 75° E 23:05:46 10° NNE
Cosmos 1782 Rocket 4.5 22:58:56 10° NNW 23:02:59 37° W 23:04:50 25° SW
SL-16 R/B 3.6 22:57:56 10° WSW 23:03:08 36° NW 23:08:23 10° NNE
ERS-2 2.0 23:02:02 10° NNE 23:05:40 80° WNW 23:06:52 40° SSW
CZ-4C R/B 2.9 23:00:53 10° NW 23:07:56 74° SW 23:14:17 19° SSE
Okean 2 3.6 23:06:39 36° SSE 23:08:04 58° E 23:12:07 10° NNE
NOSS 3-1 (C) 4.2 23:01:22 10° NW 23:08:34 58° SW 23:14:02 23° SSE
USA 290 2.8 23:10:46 39° ESE 23:11:01 39° ESE 23:14:04 10° NE
Cosmos 1238 Rocket 2.5 23:08:26 10° N 23:11:21 55° ENE 23:11:57 45° SE
Gblst 52 Del rocket 4.2 23:09:42 10° WSW 23:15:59 75° SSE 23:21:38 10° ENE
Cosmos 2237 Rocket 3.5 23:14:56 20° SE 23:17:20 27° ESE 23:22:02 10° NE
Cosmos 1470 3.7 23:14:13 10° NNW 23:17:48 36° W 23:19:01 29° SW
KORONAS-FOTON 3.8 23:16:49 41° SSE 23:17:59 70° E 23:21:48 10° NNE
Cosmos 1726 4.2 23:15:43 10° NW 23:18:08 17° W 23:19:26 14° WSW
Cosmos 1300 Rocket 4.1 23:15:00 10° NNW 23:19:10 46° W 23:20:51 30° SSW
NOSS 2-2 (D) 4.1 23:14:52 10° NW 23:19:38 90° W 23:25:35 13° SE
COSMOS 2428 2.8 23:17:53 29° S 23:20:50 67° ESE 23:26:30 10° NE
Cosmos 1745 Rocket 4.2 23:14:50 10° N 23:21:05 67° ENE 23:25:01 23° SSE
PSLV R/B 3.9 23:17:30 10° NNE 23:21:51 58° ESE 23:23:41 33° SSE
Cosmos 2151 Rocket 3.5 23:17:40 10° N 23:22:05 89° W 23:23:57 35° S
Resurs 1-4 Rocket 4.4 23:20:13 10° ENE 23:22:07 12° E 23:24:01 10° ESE
ALOS 2 3.6 23:22:00 26° SW 23:23:39 34° W 23:27:41 10° NNW
Cosmos 1242 Rocket 2.7 23:21:40 10° NNW 23:25:14 56° W 23:26:07 42° SSW
Okean 2 Rocket 3.1 23:21:39 10° NNW 23:26:10 73° W 23:28:05 34° S
USA 305 4.0 23:26:44 25° SE 23:26:44 25° SE 23:30:01 10° E
Cosmos 1937 Rocket 4.3 23:22:46 15° SW 23:26:50 47° WNW 23:31:59 10° NNE
Cosmos 2360 Rocket 3.1 23:22:31 10° WSW 23:27:54 44° NW 23:33:20 10° NNE
Cosmos 1943 Rocket 3.7 23:24:12 10° NNW 23:29:22 34° NE 23:34:30 10° ESE
Cosmos 405 Rocket 3.1 23:28:20 36° SSE 23:29:27 49° E 23:33:09 10° NNE
Cosmos 1437 Rocket 2.8 23:28:22 10° N 23:32:09 67° ENE 23:33:34 35° SSE
In-Cosmos 22 4.2 23:29:31 28° SSW 23:32:35 80° WNW 23:38:04 10° N
Nimbus 7 Rocket 4.4 23:26:59 10° NNE 23:32:54 77° ESE 23:36:12 28° S
Cosmos 1908 3.1 23:29:49 10° NNW 23:33:36 75° W 23:34:48 41° S
Cosmos 1867 3.6 23:33:44 27° SSW 23:36:45 73° SE 23:42:14 10° NE
Cosmos 2298 Rocket 4.5 23:34:33 28° SSE 23:37:00 49° ESE 23:42:07 10° NNE
Meteor 1-21 4.4 23:34:35 26° SSW 23:38:00 71° WNW 23:43:50 10° N
Cosmos 1626 2.0 23:37:36 43° SSW 23:38:43 85° W 23:42:25 10° N
GP-B 4.4 23:35:28 10° NNE 23:39:29 32° E 23:42:03 18° SE
USA 215 3.2 23:36:11 10° ENE 23:42:46 90° WNW 23:49:21 10° WSW
Cosmos 1953 2.3 23:39:04 10° N 23:43:07 78° E 23:44:46 34° SSE
Cosmos 2278 Rocket 2.1 23:39:36 10° NNW 23:45:19 78° WSW 23:48:51 24° SSE
Cosmos 1674 3.1 23:50:45 32° SW 23:52:07 51° WNW 23:55:49 10° N
